sat.trackr.live / text

‹ back to catalog

STARLINK-34318

NORAD 64222 · 2025-117V

PAYLOAD ACTIVE UNKNOWN

§ Identity

Operator
Country
US
Launch date
2025-05-31
Launch site
AFWTR
Launch vehicle
Mass (kg)
RCS (m²)

Purposes: comms

External: N2YO · Heavens-Above · Gunter

§ Orbital elements

Epoch: 2026-09-20T14:14:19.134528Z

Period
93.85 min
Inclination
53.1587°
Eccentricity
0.0000776
Mean motion
15.34396848 rev/d
Perigee alt
462.2 km
Apogee alt
463.2 km
Semi-major
6,840.8 km
B*
2.8895e-4
RAAN
210.9376°
Arg perigee
98.3090°
Mean anomaly
261.8001°
Rev number
7,441

§ Raw data

STARLINK-343181 64222U 25117V   26263.59327702  .00009398  00000+0  28895-3 0  99992 64222  53.1587 210.9376 0000776  98.3090 261.8001 15.34396848 74419

JSON: /api/v1/satellites/64222 · /tle

For live sub-satellite position, see the globe view (requires WebGL).

§ Visibility from observer

Set your observer location to see the next 7 days of passes ≥ 10°. The values pass through the URL so the page stays shareable.

No JS? Fill the form by hand. The geolocation button needs JavaScript.